Skip Page Navigation
NASA JPL Caltech
NASA Logo - Jet Propulsion Laboratory + View the NASA Portal
+ Center for Near-Earth Object Studies
JPL Home Earth Solar System Stars & Galaxies Technology
JPL Solar System Dynamics
BODIES ORBITS EPHEMERIDES TOOLS PHYSICAL DATA DISCOVERY FAQ SITE MAP
IMPORTANT: The SSD Announcement email list is now available. Major changes are coming in the near future, including possible hostname and/or URL changes. To be notified of such changes, subscribe to this email list.

Please visit this page for more details.


JPL Small-Body Database Browser
Search: [ help ]  
523580 (2018 FP)
Classification: Inner Main-belt Asteroid          SPK-ID: 2523580
Ephemeris | Orbit Diagram | Orbital Elements | Mission Design | Physical Parameters | Discovery Circumstances ]

[ show orbit diagram ]
Orbital Elements at Epoch 2458600.5 (2019-Apr-27.0) TDB
Reference: JPL 10 (heliocentric ecliptic J2000)
 Element Value Uncertainty (1-sigma)   Units 
e .07870484675156307 2.0256e-07  
a 1.901113931650174 1.4076e-08 au
q 1.751487051002385 3.8331e-07 au
i 21.5457476402209 1.1965e-05 deg
node 9.544719919716508 1.3836e-05 deg
peri 28.50301554460165 7.2545e-05 deg
M 287.6276719210538 6.1077e-05 deg
tp 2458792.977817699371
(2019-Nov-05.47781770)
0.00016173 TDB
period 957.4379629765054
2.62
1.0634e-05
2.911e-08
d
yr
n .3760034737716307 4.176e-09 deg/d
Q 2.050740812297962 1.5184e-08 au
  Orbit Determination Parameters
   # obs. used (total)      194  
   data-arc span      6550 days (17.93 yr)  
   first obs. used      2001-12-20  
   last obs. used      2019-11-26  
   planetary ephem.      DE431  
   SB-pert. ephem.      SB431-N16  
   condition code      0  
   norm. resid. RMS      .44714  
   source      ORB  
   producer      Otto Matic  
   solution date      2019-Dec-15 00:24:46  

Additional Information
 Earth MOID = .763685 au 
 Jupiter MOID = 3.18387 au 
 T_jup = 3.858 
[ show covariance matrix ]

Ephemeris | Orbit Diagram | Orbital Elements | Mission Design | Physical Parameters | Discovery Circumstances ]

Physical Parameter Table
Parameter Symbol Value Units Sigma Reference Notes
absolute magnitude H 18.2   n/a MPO448276  

523580 (2018 FP)          Discovered 2005-Mar-08 by Mt. Lemmon Survey at Mount Lemmon
Reference: Last Updated: 2018-05-31
Ephemeris | Orbit Diagram | Orbital Elements | Mission Design | Physical Parameters | Discovery Circumstances ]
ABOUT SSD CREDITS/AWARDS PRIVACY/COPYRIGHT GLOSSARY LINKS
FirstGov 2020-Jan-24 11:21 UT
(server date/time)  
NASA Home Page
Site Manager:   Ryan S. Park
Webmaster  Alan B. Chamberlin